Tracking 31027 objects as of 19-Jul-2025
HD Live streaming from Space Station
objects crossing your sky now

STARLINK-1624

Track STARLINK-1624 now!
10-day predictions
STARLINK-1624 is classified as:


NORAD ID: 46130
Int'l Code: 2020-057P
Perigee: 553.5 km
Apogee: 555.2 km
Inclination: 53.1 °
Period: 95.6 minutes
Semi major axis: 6925 km
RCS: Unknown
Launch date: August 18, 2020
Source: United States (US)
Launch site: AIR FORCE EASTERN TEST RANGE (AFETR)
Your satellite tracking list
CREW DRAGON DEMO-2 DEB
Track 1 satellite(s)




NASA's NSSDC Master Catalog

Two Line Element Set (TLE):
1 46130U 20057P   25199.41467242  .00001787  00000-0  13882-3 0  9992
2 46130  53.0538 248.3240 0001189  87.1196 272.9929 15.06401198272561
Source of the keplerian elements: AFSPC